AKDT,Max TemperatureF,Mean TemperatureF,Min TemperatureF,Max Dew PointF,MeanDew PointF,Min DewpointF,Max Humidity, Mean Humidity, Min Humidity, Max Sea Level PressureIn, Mean Sea Level PressureIn, Min Sea Level PressureIn, Max VisibilityMiles, Mean VisibilityMiles, Min VisibilityMiles, Max Wind SpeedMPH, Mean Wind SpeedMPH, Max Gust SpeedMPH,PrecipitationIn, CloudCover, Events, WindDirDegrees
2013-7-1,71,64,57,55,52,46,94,66,50,29.74,29.59,29.47,10,10,5,14,6,18,0.25,5,,38
2013-7-2,64,58,53,54,52,48,94,84,59,29.59,29.51,29.46,10,8,3,15,6,16,0.06,6,,154
2013-7-3,68,58,48,52,42,36,100,58,32,29.82,29.72,29.59,10,9,0,17,8,24,0.00,1,,231
2013-7-4,66,56,46,43,38,34,76,48,30,29.87,29.85,29.82,10,10,6,20,7,24,0.00,2,,230
2013-7-5,60,54,48,45,38,32,82,56,34,29.93,29.90,29.86,10,10,5,20,9,24,0.00,3,,229
2013-7-6,66,54,42,41,35,30,76,47,26,29.97,29.92,29.85,10,10,7,14,5,16,0.00,1,,233
2013-7-7,66,55,44,46,41,37,93,54,37,29.86,29.75,29.64,10,10,10,18,6,20,0.00,3,,40
2013-7-8,62,56,51,54,50,43,100,86,55,29.65,29.63,29.61,10,9,4,14,9,21,0.58,8,,27
2013-7-9,57,54,51,54,51,48,100,89,72,30.00,29.85,29.66,10,9,3,9,4,,0.35,8,,42
2013-7-10,64,57,50,52,44,34,94,65,32,30.14,30.05,30.00,10,10,10,18,4,22,0.00,3,,144
2013-7-11,66,55,44,43,37,32,81,53,30,30.20,30.16,30.12,10,10,2,10,4,,0.00,1,,169
2013-7-12,68,57,46,43,38,34,76,49,35,30.16,30.13,30.08,10,10,10,17,5,23,0.00,0,,173
2013-7-13,77,62,48,46,41,36,71,45,29,30.12,30.06,30.00,10,10,10,13,5,,0.00,0,,208
2013-7-14,80,68,55,55,48,45,72,48,30,30.06,30.04,30.02,10,10,10,21,6,25,0.01,2,,224
2013-7-15,78,68,57,55,48,39,77,49,26,30.08,30.05,30.01,10,10,8,22,6,28,0.00,2,,230
2013-7-16,71,63,55,55,50,46,82,64,43,30.02,29.99,29.94,10,10,9,15,7,18,0.00,3,,205
2013-7-17,66,60,53,55,50,46,94,75,52,30.01,29.94,29.91,10,10,8,17,7,22,0.21,5,,237
2013-7-18,64,58,51,54,51,48,100,83,56,30.06,30.05,30.01,10,10,4,16,4,21,0.16,5,,48
2013-7-19,64,58,51,52,49,45,94,75,49,30.04,30.02,29.99,10,10,5,12,3,17,0.35,6,,36
2013-7-20,60,56,51,54,51,48,100,91,63,30.02,29.99,29.98,10,10,3,12,5,,0.31,8,,27
2013-7-21,64,58,51,52,49,45,100,78,49,30.12,30.07,30.02,10,9,2,10,6,,0.01,6,,13
2013-7-22,64,58,51,52,49,45,94,71,49,30.12,30.06,29.99,10,10,10,17,9,23,0.00,3,,227
2013-7-23,73,62,50,54,49,46,94,63,41,30.01,29.97,29.88,10,10,10,10,7,16,0.00,3,,230
2013-7-24,64,56,46,54,47,32,93,71,52,29.97,29.88,29.85,10,10,5,15,7,20,0.03,5,,295
2013-7-25,64,52,39,39,35,27,81,53,29,30.02,30.00,29.97,10,10,10,14,5,20,0.00,1,,309
2013-7-26,64,56,48,45,37,30,82,49,34,30.10,30.04,30.01,10,10,10,14,4,26,0.00,6,,290
2013-7-27,69,58,48,50,46,43,87,64,43,30.16,30.14,30.10,10,10,10,16,3,20,0.00,4,,258
2013-7-28,75,65,55,52,47,43,82,54,31,30.13,30.03,29.89,10,10,10,20,9,25,0.00,1,,245
2013-7-29,69,62,55,48,42,36,72,49,33,30.09,29.97,29.88,10,10,8,23,11,29,0.00,2,,278
2013-7-30,71,58,44,50,42,34,81,54,35,30.12,30.09,30.03,10,10,10,15,5,23,0.00,2,,223
2013-7-31,69,60,51,50,45,39,88,56,33,30.07,30.04,30.00,10,10,4,14,4,,0.00,7,,346